owner,sensor,date,latitude,longitude,vertical_datum,wind_speed,wind_to_direction,wind_speed_of_gust,qcFlag 
LUMCON,ioos:station:LUMCON:101:1,2009-05-01T00:00:00Z,29.2533,-90.6633,1.0,6.7,140.0,8.2,'11111222,11111222,11111222' 
LUMCON,ioos:station:LUMCON:101:1,2009-05-01T01:00:00Z,29.2533,-90.6633,1.0,6.2,140.0,7.7,'11111222,11111222,11111222' 
LUMCON,ioos:station:LUMCON:101:1,2009-05-01T02:00:00Z,29.2533,-90.6633,1.0,6.7,140.0,8.8,'11111222,11111222,11111222' 
LUMCON,ioos:station:LUMCON:101:1,2009-05-01T03:00:00Z,29.2533,-90.6633,1.0,6.2,140.0,8.2,'11111222,11111222,11111222' 
LUMCON,ioos:station:LUMCON:101:1,2009-05-01T04:00:00Z,29.2533,-90.6633,1.0,5.7,140.0,7.2,'11111222,11111222,11111222' 
LUMCON,ioos:station:LUMCON:101:1,2009-05-01T05:00:00Z,29.2533,-90.6633,1.0,5.7,150.0,8.2,'11111222,11111222,11111222' 
LUMCON,ioos:station:LUMCON:101:1,2009-05-01T06:00:00Z,29.2533,-90.6633,1.0,5.7,160.0,8.2,'11111222,11111222,11111222' 
LUMCON,ioos:station:LUMCON:101:1,2009-05-01T07:00:00Z,29.2533,-90.6633,1.0,5.7,160.0,8.8,'11111222,11111222,11111222' 
LUMCON,ioos:station:LUMCON:101:1,2009-05-01T08:00:00Z,29.2533,-90.6633,1.0,6.7,150.0,8.8,'11111222,11111222,11111222' 
LUMCON,ioos:station:LUMCON:101:1,2009-05-01T09:00:00Z,29.2533,-90.6633,1.0,4.6,160.0,7.2,'11111222,11111222,11111222' 
LUMCON,ioos:station:LUMCON:101:1,2009-05-01T10:00:00Z,29.2533,-90.6633,1.0,5.1,150.0,6.7,'11111222,11111222,11111222' 
LUMCON,ioos:station:LUMCON:101:1,2009-05-01T11:00:00Z,29.2533,-90.6633,1.0,5.1,160.0,7.7,'11111222,11111222,11111222' 
LUMCON,ioos:station:LUMCON:101:1,2009-05-01T12:00:00Z,29.2533,-90.6633,1.0,4.6,180.0,6.2,'11111222,11111222,11111222' 
LUMCON,ioos:station:LUMCON:101:1,2009-05-01T13:00:00Z,29.2533,-90.6633,1.0,4.1,170.0,6.2,'11111222,11111222,11111222' 
LUMCON,ioos:station:LUMCON:101:1,2009-05-01T14:00:00Z,29.2533,-90.6633,1.0,5.1,160.0,7.7,'11111222,11111222,11111222' 
LUMCON,ioos:station:LUMCON:101:1,2009-05-01T15:00:00Z,29.2533,-90.6633,1.0,3.1,150.0,7.2,'11111222,11111222,11111222' 
LUMCON,ioos:station:LUMCON:101:1,2009-05-01T16:00:00Z,29.2533,-90.6633,1.0,4.6,170.0,6.7,'11111222,11111222,11111222' 
LUMCON,ioos:station:LUMCON:101:1,2009-05-01T17:00:00Z,29.2533,-90.6633,1.0,4.1,160.0,5.7,'11111222,11111222,11111222' 
LUMCON,ioos:station:LUMCON:101:1,2009-05-01T18:00:00Z,29.2533,-90.6633,1.0,3.6,150.0,5.7,'11111222,11111222,11111222' 
LUMCON,ioos:station:LUMCON:101:1,2009-05-01T19:00:00Z,29.2533,-90.6633,1.0,1.5,140.0,5.7,'11111222,11111222,11111222' 
LUMCON,ioos:station:LUMCON:101:1,2009-05-01T20:00:00Z,29.2533,-90.6633,1.0,4.1,150.0,5.7,'11111222,11111222,11111222' 
LUMCON,ioos:station:LUMCON:101:1,2009-05-01T21:00:00Z,29.2533,-90.6633,1.0,4.1,160.0,6.2,'11111222,11111222,11111222' 
LUMCON,ioos:station:LUMCON:101:1,2009-05-01T22:00:00Z,29.2533,-90.6633,1.0,4.6,160.0,6.7,'11111222,11111222,11111222' 
LUMCON,ioos:station:LUMCON:101:1,2009-05-01T23:00:00Z,29.2533,-90.6633,1.0,4.6,150.0,6.2,'11111222,11111222,11111222' 
LUMCON,ioos:station:LUMCON:101:1,2009-05-02T00:00:00Z,29.2533,-90.6633,1.0,4.6,150.0,5.7,'11111222,11111222,11111222' 
LUMCON,ioos:station:LUMCON:101:1,2009-05-02T01:00:00Z,29.2533,-90.6633,1.0,4.6,160.0,7.2,'11111222,11111222,11111222' 
LUMCON,ioos:station:LUMCON:101:1,2009-05-02T02:00:00Z,29.2533,-90.6633,1.0,5.7,150.0,8.2,'11111222,11111222,11111222' 
LUMCON,ioos:station:LUMCON:101:1,2009-05-02T03:00:00Z,29.2533,-90.6633,1.0,5.7,150.0,7.7,'11111222,11111222,11111222' 
LUMCON,ioos:station:LUMCON:101:1,2009-05-02T04:00:00Z,29.2533,-90.6633,1.0,6.2,160.0,8.2,'11111222,11111222,11111222' 
LUMCON,ioos:station:LUMCON:101:1,2009-05-02T05:00:00Z,29.2533,-90.6633,1.0,5.1,160.0,7.2,'11111222,11111222,11111222' 
LUMCON,ioos:station:LUMCON:101:1,2009-05-02T06:00:00Z,29.2533,-90.6633,1.0,5.1,160.0,7.2,'11111222,11111222,11111222' 
LUMCON,ioos:station:LUMCON:101:1,2009-05-02T07:00:00Z,29.2533,-90.6633,1.0,4.6,170.0,7.2,'11111222,11111222,11111222' 
LUMCON,ioos:station:LUMCON:101:1,2009-05-02T08:00:00Z,29.2533,-90.6633,1.0,4.6,170.0,6.7,'11111222,11111222,11111222' 
LUMCON,ioos:station:LUMCON:101:1,2009-05-02T09:00:00Z,29.2533,-90.6633,1.0,3.6,170.0,5.1,'11111222,11111222,11111222' 
LUMCON,ioos:station:LUMCON:101:1,2009-05-02T10:00:00Z,29.2533,-90.6633,1.0,4.6,190.0,5.7,'11111222,11111222,11111222' 
LUMCON,ioos:station:LUMCON:101:1,2009-05-02T11:00:00Z,29.2533,-90.6633,1.0,3.6,190.0,5.1,'11111222,11111222,11111222' 
LUMCON,ioos:station:LUMCON:101:1,2009-05-02T12:00:00Z,29.2533,-90.6633,1.0,2.6,180.0,4.1,'11111222,11111222,11111222' 
LUMCON,ioos:station:LUMCON:101:1,2009-05-02T13:00:00Z,29.2533,-90.6633,1.0,4.1,160.0,5.7,'11111222,11111222,11111222' 
LUMCON,ioos:station:LUMCON:101:1,2009-05-02T14:00:00Z,29.2533,-90.6633,1.0,4.1,180.0,6.2,'11111222,11111222,11111222' 
LUMCON,ioos:station:LUMCON:101:1,2009-05-02T15:00:00Z,29.2533,-90.6633,1.0,5.7,190.0,7.7,'11111222,11111222,11111222' 
LUMCON,ioos:station:LUMCON:101:1,2009-05-02T16:00:00Z,29.2533,-90.6633,1.0,5.7,170.0,7.7,'11111222,11111222,11111222' 
LUMCON,ioos:station:LUMCON:101:1,2009-05-02T17:00:00Z,29.2533,-90.6633,1.0,5.7,150.0,7.7,'11111222,11111222,11111222' 
LUMCON,ioos:station:LUMCON:101:1,2009-05-02T18:00:00Z,29.2533,-90.6633,1.0,5.1,160.0,6.7,'11111222,11111222,11111222' 
LUMCON,ioos:station:LUMCON:101:1,2009-05-02T19:00:00Z,29.2533,-90.6633,1.0,5.7,150.0,8.2,'11111222,11111222,11111222' 
LUMCON,ioos:station:LUMCON:101:1,2009-05-02T20:00:00Z,29.2533,-90.6633,1.0,5.7,160.0,8.2,'11111222,11111222,11111222' 
LUMCON,ioos:station:LUMCON:101:1,2009-05-02T21:00:00Z,29.2533,-90.6633,1.0,6.2,160.0,8.2,'11111222,11111222,11111222' 
LUMCON,ioos:station:LUMCON:101:1,2009-05-02T22:00:00Z,29.2533,-90.6633,1.0,4.6,160.0,7.2,'11111222,11111222,11111222' 
LUMCON,ioos:station:LUMCON:101:1,2009-05-02T23:00:00Z,29.2533,-90.6633,1.0,5.7,160.0,7.7,'11111222,11111222,11111222' 
LUMCON,ioos:station:LUMCON:101:1,2009-05-03T00:00:00Z,29.2533,-90.6633,1.0,6.2,150.0,8.8,'11111222,11111222,11111222' 
LUMCON,ioos:station:LUMCON:101:1,2009-05-03T01:00:00Z,29.2533,-90.6633,1.0,5.7,160.0,8.8,'11111222,11111222,11111222' 
LUMCON,ioos:station:LUMCON:101:1,2009-05-03T02:00:00Z,29.2533,-90.6633,1.0,7.7,160.0,9.8,'11111222,11111222,11111222' 
LUMCON,ioos:station:LUMCON:101:1,2009-05-03T03:00:00Z,29.2533,-90.6633,1.0,7.7,160.0,9.8,'11111222,11111222,11111222' 
LUMCON,ioos:station:LUMCON:101:1,2009-05-03T04:00:00Z,29.2533,-90.6633,1.0,7.7,160.0,9.8,'11111222,11111222,11111222' 
LUMCON,ioos:station:LUMCON:101:1,2009-05-03T05:00:00Z,29.2533,-90.6633,1.0,7.7,170.0,9.8,'11111222,11111222,11111222' 
LUMCON,ioos:station:LUMCON:101:1,2009-05-03T06:00:00Z,29.2533,-90.6633,1.0,6.7,160.0,9.3,'11111222,11111222,11111222' 
LUMCON,ioos:station:LUMCON:101:1,2009-05-03T07:00:00Z,29.2533,-90.6633,1.0,6.2,170.0,8.8,'11111222,11111222,11111222' 
LUMCON,ioos:station:LUMCON:101:1,2009-05-03T08:00:00Z,29.2533,-90.6633,1.0,5.1,170.0,7.7,'11111222,11111222,11111222' 
LUMCON,ioos:station:LUMCON:101:1,2009-05-03T09:00:00Z,29.2533,-90.6633,1.0,5.1,160.0,7.7,'11111222,11111222,11111222' 
LUMCON,ioos:station:LUMCON:101:1,2009-05-03T10:00:00Z,29.2533,-90.6633,1.0,6.2,160.0,9.3,'11111222,11111222,11111222' 
LUMCON,ioos:station:LUMCON:101:1,2009-05-03T11:00:00Z,29.2533,-90.6633,1.0,6.7,170.0,9.3,'11111222,11111222,11111222' 
LUMCON,ioos:station:LUMCON:101:1,2009-05-03T12:00:00Z,29.2533,-90.6633,1.0,6.2,170.0,9.3,'11111222,11111222,11111222' 
LUMCON,ioos:station:LUMCON:101:1,2009-05-03T13:00:00Z,29.2533,-90.6633,1.0,7.7,160.0,9.8,'11111222,11111222,11111222' 
LUMCON,ioos:station:LUMCON:101:1,2009-05-03T14:00:00Z,29.2533,-90.6633,1.0,8.2,170.0,13.4,'11111222,11111222,11111222' 
LUMCON,ioos:station:LUMCON:101:1,2009-05-03T15:00:00Z,29.2533,-90.6633,1.0,8.8,170.0,9.8,'11111222,11111222,11111222' 
LUMCON,ioos:station:LUMCON:101:1,2009-05-03T16:00:00Z,29.2533,-90.6633,1.0,5.1,170.0,9.3,'11111222,11111222,11111222' 
LUMCON,ioos:station:LUMCON:101:1,2009-05-03T17:00:00Z,29.2533,-90.6633,1.0,6.2,190.0,9.3,'11111222,11111222,11111222' 
LUMCON,ioos:station:LUMCON:101:1,2009-05-03T18:00:00Z,29.2533,-90.6633,1.0,4.6,180.0,8.8,'11111222,11111222,11111222' 
LUMCON,ioos:station:LUMCON:101:1,2009-05-03T19:00:00Z,29.2533,-90.6633,1.0,2.1,180.0,7.7,'11111222,11111222,11111222' 
LUMCON,ioos:station:LUMCON:101:1,2009-05-03T20:00:00Z,29.2533,-90.6633,1.0,5.1,160.0,7.2,'11111222,11111222,11111222' 
LUMCON,ioos:station:LUMCON:101:1,2009-05-03T21:00:00Z,29.2533,-90.6633,1.0,5.1,170.0,7.2,'11111222,11111222,11111222' 
LUMCON,ioos:station:LUMCON:101:1,2009-05-03T22:00:00Z,29.2533,-90.6633,1.0,4.6,160.0,6.7,'11111222,11111222,11111222' 
LUMCON,ioos:station:LUMCON:101:1,2009-05-03T23:00:00Z,29.2533,-90.6633,1.0,4.6,140.0,6.2,'11111222,11111222,11111222' 
LUMCON,ioos:station:LUMCON:101:1,2009-05-04T00:00:00Z,29.2533,-90.6633,1.0,5.7,140.0,7.7,'11111222,11111222,11111222' 
LUMCON,ioos:station:LUMCON:101:1,2009-05-04T01:00:00Z,29.2533,-90.6633,1.0,7.7,150.0,8.8,'11111222,11111222,11111222' 
LUMCON,ioos:station:LUMCON:101:1,2009-05-04T02:00:00Z,29.2533,-90.6633,1.0,7.7,150.0,9.8,'11111222,11111222,11111222' 
LUMCON,ioos:station:LUMCON:101:1,2009-05-04T03:00:00Z,29.2533,-90.6633,1.0,7.7,170.0,9.8,'11111222,11111222,11111222' 
LUMCON,ioos:station:LUMCON:101:1,2009-05-04T04:00:00Z,29.2533,-90.6633,1.0,6.7,180.0,9.3,'11111222,11111222,11111222' 
LUMCON,ioos:station:LUMCON:101:1,2009-05-04T05:00:00Z,29.2533,-90.6633,1.0,7.7,170.0,9.8,'11111222,11111222,11111222' 
LUMCON,ioos:station:LUMCON:101:1,2009-05-04T06:00:00Z,29.2533,-90.6633,1.0,5.1,180.0,7.7,'11111222,11111222,11111222' 
LUMCON,ioos:station:LUMCON:101:1,2009-05-04T07:00:00Z,29.2533,-90.6633,1.0,6.7,180.0,8.8,'11111222,11111222,11111222' 
LUMCON,ioos:station:LUMCON:101:1,2009-05-04T08:00:00Z,29.2533,-90.6633,1.0,6.7,190.0,9.8,'11111222,11111222,11111222' 
LUMCON,ioos:station:LUMCON:101:1,2009-05-04T09:00:00Z,29.2533,-90.6633,1.0,6.7,190.0,8.8,'11111222,11111222,11111222' 
LUMCON,ioos:station:LUMCON:101:1,2009-05-04T10:00:00Z,29.2533,-90.6633,1.0,8.2,200.0,9.8,'11111222,11111222,11111222' 
LUMCON,ioos:station:LUMCON:101:1,2009-05-04T11:00:00Z,29.2533,-90.6633,1.0,7.2,210.0,9.3,'11111222,11111222,11111222' 
LUMCON,ioos:station:LUMCON:101:1,2009-05-04T12:00:00Z,29.2533,-90.6633,1.0,7.2,210.0,8.8,'11111222,11111222,11111222' 
LUMCON,ioos:station:LUMCON:101:1,2009-05-04T13:00:00Z,29.2533,-90.6633,1.0,6.2,210.0,7.7,'11111222,11111222,11111222' 
LUMCON,ioos:station:LUMCON:101:1,2009-05-04T14:00:00Z,29.2533,-90.6633,1.0,8.8,200.0,9.8,'11111222,11111222,11111222' 
LUMCON,ioos:station:LUMCON:101:1,2009-05-04T15:00:00Z,29.2533,-90.6633,1.0,8.2,200.0,9.8,'11111222,11111222,11111222' 
LUMCON,ioos:station:LUMCON:101:1,2009-05-04T16:00:00Z,29.2533,-90.6633,1.0,5.7,220.0,7.7,'11111222,11111222,11111222' 
LUMCON,ioos:station:LUMCON:101:1,2009-05-04T17:00:00Z,29.2533,-90.6633,1.0,4.1,50.0,6.2,'11111222,11111222,11111222' 
LUMCON,ioos:station:LUMCON:101:1,2009-05-04T18:00:00Z,29.2533,-90.6633,1.0,5.1,350.0,8.8,'11111222,11111222,11111222' 
LUMCON,ioos:station:LUMCON:101:1,2009-05-04T19:00:00Z,29.2533,-90.6633,1.0,4.6,40.0,6.7,'11111222,11111222,11111222' 
LUMCON,ioos:station:LUMCON:101:1,2009-05-04T20:00:00Z,29.2533,-90.6633,1.0,4.6,150.0,6.7,'11111222,11111222,11111222' 
LUMCON,ioos:station:LUMCON:101:1,2009-05-04T21:00:00Z,29.2533,-90.6633,1.0,3.6,170.0,5.1,'11111222,11111222,11111222' 
LUMCON,ioos:station:LUMCON:101:1,2009-05-04T22:00:00Z,29.2533,-90.6633,1.0,5.7,170.0,7.2,'11111222,11111222,11111222' 
LUMCON,ioos:station:LUMCON:101:1,2009-05-04T23:00:00Z,29.2533,-90.6633,1.0,4.1,180.0,6.2,'11111222,11111222,11111222' 
LUMCON,ioos:station:LUMCON:101:1,2009-05-05T00:00:00Z,29.2533,-90.6633,1.0,4.1,190.0,5.1,'11111222,11111222,11111222' 
LUMCON,ioos:station:LUMCON:101:1,2009-05-05T01:00:00Z,29.2533,-90.6633,1.0,3.1,170.0,4.1,'11111222,11111222,11111222' 
LUMCON,ioos:station:LUMCON:101:1,2009-05-05T02:00:00Z,29.2533,-90.6633,1.0,2.1,160.0,3.1,'11111222,11111222,11111222' 
LUMCON,ioos:station:LUMCON:101:1,2009-05-05T03:00:00Z,29.2533,-90.6633,1.0,2.6,150.0,3.1,'11111222,11111222,11111222' 
LUMCON,ioos:station:LUMCON:101:1,2009-05-05T04:00:00Z,29.2533,-90.6633,1.0,2.6,150.0,3.6,'11111222,11111222,11111222' 
LUMCON,ioos:station:LUMCON:101:1,2009-05-05T05:00:00Z,29.2533,-90.6633,1.0,2.1,160.0,2.6,'11111222,11111222,11111222' 
LUMCON,ioos:station:LUMCON:101:1,2009-05-05T06:00:00Z,29.2533,-90.6633,1.0,2.6,170.0,3.6,'11111222,11111222,11111222' 
LUMCON,ioos:station:LUMCON:101:1,2009-05-05T07:00:00Z,29.2533,-90.6633,1.0,3.1,160.0,4.6,'11111222,11111222,11111222' 
LUMCON,ioos:station:LUMCON:101:1,2009-05-05T08:00:00Z,29.2533,-90.6633,1.0,3.6,160.0,5.1,'11111222,11111222,11111222' 
LUMCON,ioos:station:LUMCON:101:1,2009-05-05T09:00:00Z,29.2533,-90.6633,1.0,3.6,160.0,4.6,'11111222,11111222,11111222' 
LUMCON,ioos:station:LUMCON:101:1,2009-05-05T10:00:00Z,29.2533,-90.6633,1.0,3.1,150.0,4.6,'11111222,11111222,11111222' 
LUMCON,ioos:station:LUMCON:101:1,2009-05-05T11:00:00Z,29.2533,-90.6633,1.0,4.1,150.0,5.7,'11111222,11111222,11111222' 
LUMCON,ioos:station:LUMCON:101:1,2009-05-05T12:00:00Z,29.2533,-90.6633,1.0,3.6,150.0,5.1,'11111222,11111222,11111222' 
LUMCON,ioos:station:LUMCON:101:1,2009-05-05T13:00:00Z,29.2533,-90.6633,1.0,3.6,150.0,4.6,'11111222,11111222,11111222' 
LUMCON,ioos:station:LUMCON:101:1,2009-05-05T14:00:00Z,29.2533,-90.6633,1.0,3.6,140.0,5.1,'11111222,11111222,11111222' 
LUMCON,ioos:station:LUMCON:101:1,2009-05-05T15:00:00Z,29.2533,-90.6633,1.0,5.1,150.0,7.2,'11111222,11111222,11111222' 
LUMCON,ioos:station:LUMCON:101:1,2009-05-05T16:00:00Z,29.2533,-90.6633,1.0,5.7,170.0,7.2,'11111222,11111222,11111222' 
LUMCON,ioos:station:LUMCON:101:1,2009-05-05T17:00:00Z,29.2533,-90.6633,1.0,4.6,160.0,6.7,'11111222,11111222,11111222' 
LUMCON,ioos:station:LUMCON:101:1,2009-05-05T18:00:00Z,29.2533,-90.6633,1.0,4.1,150.0,5.7,'11111222,11111222,11111222' 
LUMCON,ioos:station:LUMCON:101:1,2009-05-05T19:00:00Z,29.2533,-90.6633,1.0,4.6,140.0,6.2,'11111222,11111222,11111222' 
LUMCON,ioos:station:LUMCON:101:1,2009-05-05T20:00:00Z,29.2533,-90.6633,1.0,4.1,160.0,6.2,'11111222,11111222,11111222' 
LUMCON,ioos:station:LUMCON:101:1,2009-05-05T21:00:00Z,29.2533,-90.6633,1.0,4.1,160.0,6.2,'11111222,11111222,11111222' 
LUMCON,ioos:station:LUMCON:101:1,2009-05-05T22:00:00Z,29.2533,-90.6633,1.0,4.1,170.0,6.2,'11111222,11111222,11111222' 
LUMCON,ioos:station:LUMCON:101:1,2009-05-05T23:00:00Z,29.2533,-90.6633,1.0,3.6,170.0,5.7,'11111222,11111222,11111222' 
LUMCON,ioos:station:LUMCON:101:1,2009-05-06T00:00:00Z,29.2533,-90.6633,1.0,3.6,160.0,5.1,'11111222,11111222,11111222' 
LUMCON,ioos:station:LUMCON:101:1,2009-05-06T01:00:00Z,29.2533,-90.6633,1.0,3.6,160.0,5.1,'11111222,11111222,11111222' 
LUMCON,ioos:station:LUMCON:101:1,2009-05-06T02:00:00Z,29.2533,-90.6633,1.0,4.6,160.0,6.7,'11111222,11111222,11111222' 
LUMCON,ioos:station:LUMCON:101:1,2009-05-06T03:00:00Z,29.2533,-90.6633,1.0,6.7,150.0,9.3,'11111222,11111222,11111222' 
LUMCON,ioos:station:LUMCON:101:1,2009-05-06T04:00:00Z,29.2533,-90.6633,1.0,8.2,150.0,9.8,'11111222,11111222,11111222' 
LUMCON,ioos:station:LUMCON:101:1,2009-05-06T05:00:00Z,29.2533,-90.6633,1.0,8.8,140.0,9.8,'11111222,11111222,11111222' 
LUMCON,ioos:station:LUMCON:101:1,2009-05-06T06:00:00Z,29.2533,-90.6633,1.0,7.7,150.0,9.8,'11111222,11111222,11111222' 
LUMCON,ioos:station:LUMCON:101:1,2009-05-06T07:00:00Z,29.2533,-90.6633,1.0,7.2,160.0,9.8,'11111222,11111222,11111222' 
LUMCON,ioos:station:LUMCON:101:1,2009-05-06T08:00:00Z,29.2533,-90.6633,1.0,7.7,170.0,9.8,'11111222,11111222,11111222' 
LUMCON,ioos:station:LUMCON:101:1,2009-05-06T09:00:00Z,29.2533,-90.6633,1.0,7.7,160.0,9.8,'11111222,11111222,11111222' 
LUMCON,ioos:station:LUMCON:101:1,2009-05-06T10:00:00Z,29.2533,-90.6633,1.0,7.2,170.0,9.8,'11111222,11111222,11111222' 
LUMCON,ioos:station:LUMCON:101:1,2009-05-06T11:00:00Z,29.2533,-90.6633,1.0,7.2,170.0,9.8,'11111222,11111222,11111222' 
LUMCON,ioos:station:LUMCON:101:1,2009-05-06T12:00:00Z,29.2533,-90.6633,1.0,6.2,170.0,9.8,'11111222,11111222,11111222' 
LUMCON,ioos:station:LUMCON:101:1,2009-05-06T13:00:00Z,29.2533,-90.6633,1.0,6.2,170.0,9.8,'11111222,11111222,11111222' 
LUMCON,ioos:station:LUMCON:101:1,2009-05-06T14:00:00Z,29.2533,-90.6633,1.0,7.2,180.0,9.8,'11111222,11111222,11111222' 
LUMCON,ioos:station:LUMCON:101:1,2009-05-06T15:00:00Z,29.2533,-90.6633,1.0,6.2,170.0,8.8,'11111222,11111222,11111222' 
LUMCON,ioos:station:LUMCON:101:1,2009-05-06T16:00:00Z,29.2533,-90.6633,1.0,6.2,170.0,9.3,'11111222,11111222,11111222' 
LUMCON,ioos:station:LUMCON:101:1,2009-05-06T17:00:00Z,29.2533,-90.6633,1.0,6.7,170.0,9.3,'11111222,11111222,11111222' 
LUMCON,ioos:station:LUMCON:101:1,2009-05-06T18:00:00Z,29.2533,-90.6633,1.0,6.7,170.0,9.8,'11111222,11111222,11111222' 
LUMCON,ioos:station:LUMCON:101:1,2009-05-06T19:00:00Z,29.2533,-90.6633,1.0,6.7,170.0,9.3,'11111222,11111222,11111222' 
LUMCON,ioos:station:LUMCON:101:1,2009-05-06T20:00:00Z,29.2533,-90.6633,1.0,4.6,170.0,7.2,'11111222,11111222,11111222' 
LUMCON,ioos:station:LUMCON:101:1,2009-05-06T21:00:00Z,29.2533,-90.6633,1.0,4.6,180.0,6.7,'11111222,11111222,11111222' 
LUMCON,ioos:station:LUMCON:101:1,2009-05-06T22:00:00Z,29.2533,-90.6633,1.0,4.1,180.0,5.7,'11111222,11111222,11111222' 
LUMCON,ioos:station:LUMCON:101:1,2009-05-06T23:00:00Z,29.2533,-90.6633,1.0,4.1,170.0,6.2,'11111222,11111222,11111222' 
LUMCON,ioos:station:LUMCON:101:1,2009-05-07T00:00:00Z,29.2533,-90.6633,1.0,4.1,170.0,6.7,'11111222,11111222,11111222' 
LUMCON,ioos:station:LUMCON:101:1,2009-05-07T01:00:00Z,29.2533,-90.6633,1.0,4.6,160.0,7.7,'11111222,11111222,11111222' 
LUMCON,ioos:station:LUMCON:101:1,2009-05-07T02:00:00Z,29.2533,-90.6633,1.0,5.1,160.0,7.7,'11111222,11111222,11111222' 
LUMCON,ioos:station:LUMCON:101:1,2009-05-07T03:00:00Z,29.2533,-90.6633,1.0,4.6,160.0,7.2,'11111222,11111222,11111222' 
LUMCON,ioos:station:LUMCON:101:1,2009-05-07T04:00:00Z,29.2533,-90.6633,1.0,5.1,170.0,7.7,'11111222,11111222,11111222' 
LUMCON,ioos:station:LUMCON:101:1,2009-05-07T05:00:00Z,29.2533,-90.6633,1.0,4.6,170.0,6.7,'11111222,11111222,11111222' 
LUMCON,ioos:station:LUMCON:101:1,2009-05-07T06:00:00Z,29.2533,-90.6633,1.0,5.1,170.0,8.8,'11111222,11111222,11111222' 
LUMCON,ioos:station:LUMCON:101:1,2009-05-07T07:00:00Z,29.2533,-90.6633,1.0,4.6,180.0,6.7,'11111222,11111222,11111222' 
LUMCON,ioos:station:LUMCON:101:1,2009-05-07T08:00:00Z,29.2533,-90.6633,1.0,4.1,190.0,5.1,'11111222,11111222,11111222' 
LUMCON,ioos:station:LUMCON:101:1,2009-05-07T09:00:00Z,29.2533,-90.6633,1.0,3.1,180.0,4.6,'11111222,11111222,11111222' 
LUMCON,ioos:station:LUMCON:101:1,2009-05-07T10:00:00Z,29.2533,-90.6633,1.0,3.6,180.0,4.6,'11111222,11111222,11111222' 
LUMCON,ioos:station:LUMCON:101:1,2009-05-07T11:00:00Z,29.2533,-90.6633,1.0,3.6,180.0,4.6,'11111222,11111222,11111222' 
LUMCON,ioos:station:LUMCON:101:1,2009-05-07T12:00:00Z,29.2533,-90.6633,1.0,2.6,170.0,4.1,'11111222,11111222,11111222' 
LUMCON,ioos:station:LUMCON:101:1,2009-05-07T13:00:00Z,29.2533,-90.6633,1.0,4.6,170.0,5.1,'11111222,11111222,11111222' 
LUMCON,ioos:station:LUMCON:101:1,2009-05-11T20:00:00Z,29.2533,-90.6633,1.0,4.6,180.0,6.7,'11111222,11111222,11111222' 
LUMCON,ioos:station:LUMCON:101:1,2009-05-11T21:00:00Z,29.2533,-90.6633,1.0,4.6,180.0,6.2,'11111222,11111222,11111222' 
LUMCON,ioos:station:LUMCON:101:1,2009-05-11T22:00:00Z,29.2533,-90.6633,1.0,4.6,200.0,5.7,'11111222,11111222,11111222' 
LUMCON,ioos:station:LUMCON:101:1,2009-05-11T23:00:00Z,29.2533,-90.6633,1.0,4.6,230.0,5.7,'11111222,11111222,11111222' 
LUMCON,ioos:station:LUMCON:101:1,2009-05-12T00:00:00Z,29.2533,-90.6633,1.0,3.6,240.0,4.6,'11111222,11111222,11111222' 
LUMCON,ioos:station:LUMCON:101:1,2009-05-12T01:00:00Z,29.2533,-90.6633,1.0,3.1,260.0,4.1,'11111222,11111222,11111222' 
LUMCON,ioos:station:LUMCON:101:1,2009-05-12T02:00:00Z,29.2533,-90.6633,1.0,2.1,280.0,3.1,'11111222,11111222,11111222' 
LUMCON,ioos:station:LUMCON:101:1,2009-05-12T03:00:00Z,29.2533,-90.6633,1.0,4.1,150.0,5.7,'11111222,11111222,11111222' 
LUMCON,ioos:station:LUMCON:101:1,2009-05-12T04:00:00Z,29.2533,-90.6633,1.0,5.7,170.0,8.2,'11111222,11111222,11111222' 
LUMCON,ioos:station:LUMCON:101:1,2009-05-12T05:00:00Z,29.2533,-90.6633,1.0,5.1,180.0,8.2,'11111222,11111222,11111222' 
LUMCON,ioos:station:LUMCON:101:1,2009-05-12T06:00:00Z,29.2533,-90.6633,1.0,1.5,300.0,2.1,'11111222,11111222,11111222' 
LUMCON,ioos:station:LUMCON:101:1,2009-05-12T07:00:00Z,29.2533,-90.6633,1.0,3.1,360.0,4.1,'11111222,11144222,11111222' 
LUMCON,ioos:station:LUMCON:101:1,2009-05-12T08:00:00Z,29.2533,-90.6633,1.0,2.6,20.0,3.1,'11111222,11111222,11111222' 
LUMCON,ioos:station:LUMCON:101:1,2009-05-12T09:00:00Z,29.2533,-90.6633,1.0,1.5,360.0,2.1,'11111222,11144222,11111222' 
LUMCON,ioos:station:LUMCON:101:1,2009-05-12T10:00:00Z,29.2533,-90.6633,1.0,1.0,10.0,1.5,'11111222,11111222,11111222' 
LUMCON,ioos:station:LUMCON:101:1,2009-05-12T11:00:00Z,29.2533,-90.6633,1.0,1.5,20.0,1.5,'11111222,11111222,11111222' 
LUMCON,ioos:station:LUMCON:101:1,2009-05-12T12:00:00Z,29.2533,-90.6633,1.0,1.5,20.0,1.5,'11111222,11111222,11111222' 
LUMCON,ioos:station:LUMCON:101:1,2009-05-12T13:00:00Z,29.2533,-90.6633,1.0,2.1,30.0,2.6,'11111222,11111222,11111222' 
LUMCON,ioos:station:LUMCON:101:1,2009-05-12T14:00:00Z,29.2533,-90.6633,1.0,1.5,20.0,3.1,'11111222,11111222,11111222' 
LUMCON,ioos:station:LUMCON:101:1,2009-05-12T15:00:00Z,29.2533,-90.6633,1.0,1.5,90.0,3.1,'11111222,11111222,11111222' 
LUMCON,ioos:station:LUMCON:101:1,2009-05-12T16:00:00Z,29.2533,-90.6633,1.0,2.6,120.0,3.6,'11111222,11111222,11111222' 
LUMCON,ioos:station:LUMCON:101:1,2009-05-12T17:00:00Z,29.2533,-90.6633,1.0,3.1,130.0,4.6,'11111222,11111222,11111222' 
LUMCON,ioos:station:LUMCON:101:1,2009-05-12T18:00:00Z,29.2533,-90.6633,1.0,4.1,140.0,5.1,'11111222,11111222,11111222' 
LUMCON,ioos:station:LUMCON:101:1,2009-05-12T19:00:00Z,29.2533,-90.6633,1.0,4.1,150.0,5.7,'11111222,11111222,11111222' 
LUMCON,ioos:station:LUMCON:101:1,2009-05-12T20:00:00Z,29.2533,-90.6633,1.0,4.6,150.0,6.2,'11111222,11111222,11111222' 
LUMCON,ioos:station:LUMCON:101:1,2009-05-12T21:00:00Z,29.2533,-90.6633,1.0,4.1,170.0,6.7,'11111222,11111222,11111222' 
LUMCON,ioos:station:LUMCON:101:1,2009-05-12T22:00:00Z,29.2533,-90.6633,1.0,3.6,190.0,6.2,'11111222,11111222,11111222' 
LUMCON,ioos:station:LUMCON:101:1,2009-05-12T23:00:00Z,29.2533,-90.6633,1.0,3.6,170.0,5.1,'11111222,11111222,11111222' 
LUMCON,ioos:station:LUMCON:101:1,2009-05-13T00:00:00Z,29.2533,-90.6633,1.0,3.6,180.0,5.7,'11111222,11111222,11111222' 
LUMCON,ioos:station:LUMCON:101:1,2009-05-13T01:00:00Z,29.2533,-90.6633,1.0,3.1,190.0,4.1,'11111222,11111222,11111222' 
LUMCON,ioos:station:LUMCON:101:1,2009-05-13T02:00:00Z,29.2533,-90.6633,1.0,2.6,170.0,3.6,'11111222,11111222,11111222' 
LUMCON,ioos:station:LUMCON:101:1,2009-05-13T03:00:00Z,29.2533,-90.6633,1.0,3.6,160.0,5.1,'11111222,11111222,11111222' 
LUMCON,ioos:station:LUMCON:101:1,2009-05-13T04:00:00Z,29.2533,-90.6633,1.0,3.1,160.0,4.6,'11111222,11111222,11111222' 
LUMCON,ioos:station:LUMCON:101:1,2009-05-13T05:00:00Z,29.2533,-90.6633,1.0,3.1,160.0,4.1,'11111222,11111222,11111222' 
LUMCON,ioos:station:LUMCON:101:1,2009-05-13T06:00:00Z,29.2533,-90.6633,1.0,4.6,160.0,5.7,'11111222,11111222,11111222' 
LUMCON,ioos:station:LUMCON:101:1,2009-05-13T07:00:00Z,29.2533,-90.6633,1.0,5.1,160.0,7.2,'11111222,11111222,11111222' 
LUMCON,ioos:station:LUMCON:101:1,2009-05-13T08:00:00Z,29.2533,-90.6633,1.0,5.7,150.0,7.2,'11111222,11111222,11111222' 
LUMCON,ioos:station:LUMCON:101:1,2009-05-13T09:00:00Z,29.2533,-90.6633,1.0,4.1,160.0,6.2,'11111222,11111222,11111222' 
LUMCON,ioos:station:LUMCON:101:1,2009-05-13T10:00:00Z,29.2533,-90.6633,1.0,4.1,150.0,6.2,'11111222,11111222,11111222' 
LUMCON,ioos:station:LUMCON:101:1,2009-05-13T11:00:00Z,29.2533,-90.6633,1.0,4.1,160.0,6.2,'11111222,11111222,11111222' 
LUMCON,ioos:station:LUMCON:101:1,2009-05-13T12:00:00Z,29.2533,-90.6633,1.0,5.1,160.0,7.2,'11111222,11111222,11111222' 
LUMCON,ioos:station:LUMCON:101:1,2009-05-13T13:00:00Z,29.2533,-90.6633,1.0,5.7,160.0,8.2,'11111222,11111222,11111222' 